Location: Gro� Glienicke
(52.4675°N, 13.1079°E)
Time: 02:00:16
(UTC+00:00)

Cosmos 2237 Rocket - Pass Details

Date: 06 July 2020
Orbit: 834 x 850 km, 71.0° (Epoch: 04 August)

Event Time Altitude Azimuth Distance (km) Brightness Sun altitude
Rises 23:42:45 0° 252° (WSW) 3,411 5.1 -14.7°
Reaches altitude 10° 23:45:35 10° 264° (W) 2,480 4.5 -14.6°
Maximum altitude 23:50:23 27° 322° (NW) 1,579 4.1 -14.5°
Drops below altitude 10° 23:55:13 10° 19° (NNE) 2,489 6.0 -14.4°
Sets 23:58:04 0° 32° (NNE) 3,427 6.8 -14.3°
